Location: Berg
(47.2344°N, 9.5296°E)
Time: 17:31:04
(UTC+00:00)

Cosmos 1818 - Pass Details

Date: 24 January 2021
Orbit: 773 x 800 km, 65.0° (Epoch: 28 February)

Event Time Altitude Azimuth Distance (km) Brightness Sun altitude
Rises 18:01:10 0° 236° (WSW) 3,273 7.9 -18.4°
Reaches altitude 10° 18:03:40 10° 243° (WSW) 2,351 7.1 -18.8°
Maximum altitude 18:08:51 45° 316° (NW) 1,076 4.5 -19.6°
Enters shadow 18:12:52 17° 23° (NNE) 1,953 5.3 -20.3°
